Dansville, NY

9:27 AM EDT on April 30, 2017 (GMT -0400)
Dansville Municipal

Weather History for KDSV - June, 2013

Change the Weather History Date:

Thursday, June 13, 2013

  Actual Average Record
Temperature  
Mean Temperature 64 °F -  
Max Temperature 69 °F 78 °F 98 °F (1949)
Min Temperature 57 °F 51 °F 32 °F (1979)
Degree Days  
Heating Degree Days 1    
Growing Degree Days 14 (Base 50)    
Moisture  
Dew Point 61 °F    
Average Humidity 90    
Maximum Humidity 100    
Minimum Humidity 81    
Precipitation  
Precipitation 0.46 in - - ()
Sea Level Pressure  
Sea Level Pressure 29.59 in    
Wind  
Wind Speed 7 mph (NW)    
Max Wind Speed 15 mph    
Max Gust Speed 18 mph    
Visibility 7 miles    
Events Rain    
Averages and records for this station are not official NWS values.
T = Trace of Precipitation, MM = Missing Value Source: NWS Daily Summary

Daily Weather History Graph

Daily Weather History Graph

Search for Another Location

Airport or City:

Trip Planner

Search our weather history database for the weather conditions in past years. The results will help you decide how hot, cold, wet, or windy it might be!

Date:

Astronomy

Jun. 13, 2013 Rise Set
Actual Time 5:32 AM EDT 8:49 PM EDT
Civil Twilight 4:57 AM EDT 9:24 PM EDT
Nautical Twilight 4:12 AM EDT 10:09 PM EDT
Astronomical Twilight 3:17 AM EDT 11:04 PM EDT
Moon 10:12 AM EDT (6/13) 11:49 PM EDT (6/13)
Length of Visible Light 16h 26m
Length of Day
15h 16m
Waxing Crescent, 21% of the Moon is Illuminated
Jun 13
Waxing Crescent
Jun 16
First Quarter
Jun 23
Full
Jun 30
Last Quarter
Jul 8
New

Hourly Weather History & Observations

Time (EDT) Temp. Dew Point Humidity Pressure Visibility Wind Dir Wind Speed Gust Speed Precip Events Conditions
12:54 AM 64.9 °F 59.0 °F 81% 29.79 in 10.0 mi SE 6.9 mph - N/A   Overcast
1:54 AM 64.9 °F 60.1 °F 84% 29.76 in 10.0 mi SSE 4.6 mph - 0.00 in   Mostly Cloudy
2:54 AM 64.9 °F 59.0 °F 81% 29.73 in 10.0 mi SE 8.1 mph - 0.00 in   Overcast
3:54 AM 64.0 °F 59.0 °F 84% 29.68 in 10.0 mi SSE 3.5 mph - N/A   Overcast
4:54 AM 64.0 °F 59.0 °F 84% 29.65 in 10.0 mi SSE 3.5 mph - N/A   Overcast
5:54 AM 64.0 °F 59.0 °F 84% 29.63 in 10.0 mi South 8.1 mph - N/A   Overcast
6:54 AM 64.9 °F 60.1 °F 84% 29.59 in 10.0 mi SSE 9.2 mph - 0.00 in Rain Light Rain
7:54 AM 64.9 °F 63.0 °F 93% 29.54 in 4.0 mi SSE 5.8 mph - 0.12 in Rain Rain
8:54 AM 66.0 °F 63.0 °F 90% 29.53 in 5.0 mi SSE 5.8 mph - 0.05 in Rain Rain
9:19 AM 64.4 °F 62.6 °F 94% 29.51 in 4.0 mi Variable 3.5 mph - 0.05 in Rain Light Rain
9:30 AM 64.4 °F 62.6 °F 94% 29.51 in 9.0 mi South 4.6 mph - 0.06 in Rain Light Rain
9:54 AM 66.0 °F 64.0 °F 93% 29.52 in 6.0 mi Calm Calm - 0.07 in Rain Light Rain
10:07 AM 66.2 °F 64.4 °F 94% 29.50 in 6.0 mi SE 3.5 mph - 0.01 in Rain Light Rain
10:54 AM 68.0 °F 64.9 °F 90% 29.50 in 8.0 mi Calm Calm - 0.02 in Rain Light Rain
11:47 AM 69.8 °F 66.2 °F 88% 29.48 in 4.0 mi Calm Calm - 0.03 in Rain Light Rain
11:54 AM 69.1 °F 66.0 °F 90% 29.49 in 6.0 mi Calm Calm - 0.03 in Rain Light Rain
12:27 PM 68.0 °F 66.2 °F 94% 29.48 in 4.0 mi NW 8.1 mph - 0.00 in Rain Light Rain
12:51 PM 66.2 °F 64.4 °F 94% 29.47 in 3.0 mi NNW 9.2 mph - 0.02 in Rain Light Rain
12:54 PM 66.9 °F 64.9 °F 93% 29.49 in 3.0 mi NNW 10.4 mph - 0.02 in Rain Rain
1:00 PM 66.2 °F 64.4 °F 94% 29.47 in 1.8 mi NNW 10.4 mph - 0.06 in Rain Heavy Rain
1:03 PM 66.2 °F 64.4 °F 94% 29.48 in 1.5 mi NNW 8.1 mph - 0.07 in Rain Heavy Rain
1:10 PM 66.2 °F 64.4 °F 94% 29.47 in 2.5 mi NNW 12.7 mph - 0.08 in Rain Rain
1:18 PM 64.4 °F 64.4 °F 100% 29.47 in 6.0 mi NW 12.7 mph - 0.08 in Rain Light Rain
1:54 PM 64.9 °F 63.0 °F 93% 29.49 in 10.0 mi NW 10.4 mph - 0.08 in   Overcast
2:17 PM 64.4 °F 62.6 °F 94% 29.49 in 6.0 mi NW 12.7 mph - 0.00 in Rain Light Rain
2:38 PM 62.6 °F 60.8 °F 94% 29.51 in 3.0 mi NW 13.8 mph 18.4 mph 0.02 in Rain Rain
2:54 PM 63.0 °F 60.1 °F 90% 29.54 in 6.0 mi NW 12.7 mph - 0.03 in Rain Light Rain
3:13 PM 62.6 °F 59.0 °F 88% 29.54 in 8.0 mi WNW 10.4 mph 18.4 mph 0.00 in Rain Light Rain
3:54 PM 62.1 °F 59.0 °F 90% 29.60 in 10.0 mi NW 10.4 mph - 0.01 in Rain Light Rain
4:54 PM 61.0 °F 57.9 °F 90% 29.64 in 10.0 mi NNW 10.4 mph - 0.02 in Rain Light Rain
5:54 PM 61.0 °F 57.0 °F 87% 29.66 in 10.0 mi NNW 15.0 mph - 0.00 in   Overcast
6:54 PM 60.1 °F 57.0 °F 90% 29.70 in 10.0 mi NW 13.8 mph - 0.01 in   Overcast
7:54 PM 60.1 °F 55.9 °F 86% 29.73 in 10.0 mi NNW 13.8 mph - N/A   Overcast
8:54 PM 60.1 °F 55.9 °F 86% 29.76 in 10.0 mi NNW 12.7 mph - N/A   Overcast
9:54 PM 60.1 °F 55.9 °F 86% 29.78 in 10.0 mi NW 9.2 mph - N/A   Overcast
10:54 PM 59.0 °F 55.9 °F 90% 29.79 in 10.0 mi NW 6.9 mph - N/A   Overcast
11:54 PM 57.9 °F 55.0 °F 90% 29.81 in 10.0 mi NNW 5.8 mph - N/A   Overcast